"Sample Date","Sample Time","Sensor Name","Sample Value","Units","Flow Rate","Sample Interval","Sample Volume","Laser Status","Number Channels","Micron Size 0","Counts/Channel 0","Micron Size 1","Counts/Channel 1","Micron Size 2","Counts/Channel 2","Micron Size 3","Counts/Channel 3","Micron Size 4","Counts/Channel 4","Micron Size 5","Counts/Channel 5","Micron Size 6","Counts/Channel 6","Micron Size 7","Counts/Channel 7","Micron Size 8","Counts/Channel 8","Micron Size 9","Counts/Channel 9","Micron Size 10","Counts/Channel 10","Micron Size 11","Counts/Channel 11","Micron Size 12","Counts/Channel 12","Micron Size 13","Counts/Channel 13","Micron Size 14","Counts/Channel 14","Micron Size 15","Counts/Channel 15","Micron Size 16","Counts/Channel 16","Micron Size 17","Counts/Channel 17","Micron Size 18","Counts/Channel 18","Micron Size 19","Counts/Channel 19","Micron Size 20","Counts/Channel 20","Micron Size 21","Counts/Channel 21","Micron Size 22","Counts/Channel 22","Micron Size 23","Counts/Channel 23","Micron Size 24","Counts/Channel 24","Micron Size 25","Counts/Channel 25","Micron Size 26","Counts/Channel 26","Micron Size 27","Counts/Channel 27","Micron Size 28","Counts/Channel 28","Micron Size 29","Counts/Channel 29","Micron Size 30","Counts/Channel 30","Micron Size 31","Counts/Channel 31"
"07/01/06","23:00:02","AMMA06",61349.000,"cc",28314.627,6.00,2831.463,1,6,0.100,28038.000,0.200,26481.000,0.300,4771.000,0.500,1194.000,1.000,865.000,5.000,0
"07/01/06","23:00:08","AMMA06",60777.000,"cc",28294.346,6.00,2829.435,1,6,0.100,27900.000,0.200,26181.000,0.300,4666.000,0.500,1224.000,1.000,805.000,5.000,1.000
"07/01/06","23:00:14","AMMA06",61044.000,"cc",28340.563,6.00,2834.056,1,6,0.100,27955.000,0.200,26207.000,0.300,4803.000,0.500,1219.000,1.000,860.000,5.000,0
"07/01/06","23:00:20","AMMA06",61281.000,"cc",28261.356,6.00,2826.136,1,6,0.100,28135.000,0.200,26358.000,0.300,4651.000,0.500,1285.000,1.000,851.000,5.000,1.000
"07/01/06","23:00:26","AMMA06",61281.000,"cc",28330.693,6.00,2833.070,1,6,0.100,28308.000,0.200,26311.000,0.300,4596.000,0.500,1236.000,1.000,829.000,5.000,1.000
"07/01/06","23:00:32","AMMA06",60914.000,"cc",28351.156,6.00,2835.116,1,6,0.100,28316.000,0.200,25886.000,0.300,4646.000,0.500,1240.000,1.000,826.000,5.000,0
"07/01/06","23:00:38","AMMA06",60698.000,"cc",28330.807,6.00,2833.081,1,6,0.100,27941.000,0.200,26188.000,0.300,4553.000,0.500,1225.000,1.000,791.000,5.000,0
"07/01/06","23:00:44","AMMA06",61736.000,"cc",28341.084,6.00,2834.109,1,6,0.100,28289.000,0.200,26614.000,0.300,4708.000,0.500,1265.000,1.000,860.000,5.000,0
"07/01/06","23:00:50","AMMA06",61427.000,"cc",28259.111,6.00,2825.911,1,6,0.100,28352.000,0.200,26316.000,0.300,4640.000,0.500,1284.000,1.000,834.000,5.000,1.000
"07/01/06","23:00:56","AMMA06",61060.000,"cc",28324.693,6.00,2832.470,1,6,0.100,28325.000,0.200,26130.000,0.300,4628.000,0.500,1190.000,1.000,787.000,5.000,0
"07/01/06","23:01:02","AMMA06",61339.000,"cc",28300.293,6.00,2830.030,1,6,0.100,28352.000,0.200,26152.000,0.300,4688.000,0.500,1284.000,1.000,862.000,5.000,1.000
"07/01/06","23:01:08","AMMA06",60731.000,"cc",28301.053,6.00,2830.106,1,6,0.100,28369.000,0.200,25747.000,0.300,4542.000,0.500,1310.000,1.000,762.000,5.000,1.000
"07/01/06","23:01:14","AMMA06",60741.000,"cc",28305.721,6.00,2830.572,1,6,0.100,28208.000,0.200,25930.000,0.300,4580.000,0.500,1225.000,1.000,798.000,5.000,0
"07/01/06","23:01:20","AMMA06",60722.000,"cc",28288.715,6.00,2828.872,1,6,0.100,28055.000,0.200,26102.000,0.300,4611.000,0.500,1211.000,1.000,742.000,5.000,1.000
"07/01/06","23:01:26","AMMA06",60865.000,"cc",28350.570,6.00,2835.057,1,6,0.100,28441.000,0.200,25799.000,0.300,4528.000,0.500,1279.000,1.000,817.000,5.000,1.000
"07/01/06","23:01:32","AMMA06",60821.000,"cc",28339.977,6.00,2833.998,1,6,0.100,28418.000,0.200,25811.000,0.300,4554.000,0.500,1250.000,1.000,787.000,5.000,1.000
"07/01/06","23:01:38","AMMA06",60989.000,"cc",28358.102,6.00,2835.810,1,6,0.100,28409.000,0.200,25896.000,0.300,4678.000,0.500,1237.000,1.000,769.000,5.000,0
"07/01/06","23:01:44","AMMA06",61109.000,"cc",28275.611,6.00,2827.561,1,6,0.100,28265.000,0.200,26081.000,0.300,4669.000,0.500,1287.000,1.000,806.000,5.000,1.000
"07/01/06","23:01:50","AMMA06",61319.000,"cc",28296.924,6.00,2829.693,1,6,0.100,28856.000,0.200,25816.000,0.300,4569.000,0.500,1225.000,1.000,853.000,5.000,0
"07/01/06","23:01:56","AMMA06",61258.000,"cc",28329.584,6.00,2832.959,1,6,0.100,28615.000,0.200,25948.000,0.300,4695.000,0.500,1199.000,1.000,801.000,5.000,0
"07/01/06","23:02:02","AMMA06",61213.000,"cc",28257.621,6.00,2825.762,1,6,0.100,28381.000,0.200,26210.000,0.300,4601.000,0.500,1244.000,1.000,775.000,5.000,2.000
"07/01/06","23:02:08","AMMA06",61217.000,"cc",28312.584,6.00,2831.259,1,6,0.100,28592.000,0.200,25987.000,0.300,4676.000,0.500,1212.000,1.000,750.000,5.000,0
"07/01/06","23:02:14","AMMA06",61378.000,"cc",28373.242,6.00,2837.325,1,6,0.100,28557.000,0.200,26128.000,0.300,4655.000,0.500,1265.000,1.000,771.000,5.000,2.000
"07/01/06","23:02:20","AMMA06",61134.000,"cc",28284.440,6.00,2828.444,1,6,0.100,28700.000,0.200,25936.000,0.300,4522.000,0.500,1198.000,1.000,778.000,5.000,0
"07/01/06","23:02:26","AMMA06",61174.000,"cc",28319.881,6.00,2831.988,1,6,0.100,28359.000,0.200,26067.000,0.300,4684.000,0.500,1263.000,1.000,800.000,5.000,1.000
"07/01/06","23:02:32","AMMA06",61366.000,"cc",28332.656,6.00,2833.266,1,6,0.100,28430.000,0.200,26240.000,0.300,4639.000,0.500,1207.000,1.000,850.000,5.000,0
"07/01/06","23:02:38","AMMA06",61244.000,"cc",28293.940,6.00,2829.394,1,6,0.100,28411.000,0.200,26172.000,0.300,4622.000,0.500,1273.000,1.000,766.000,5.000,0
"07/01/06","23:02:44","AMMA06",61046.000,"cc",28293.881,6.00,2829.388,1,6,0.100,28495.000,0.200,25917.000,0.300,4597.000,0.500,1243.000,1.000,793.000,5.000,1.000
"07/01/06","23:02:50","AMMA06",61708.000,"cc",28333.633,6.00,2833.364,1,6,0.100,28796.000,0.200,26146.000,0.300,4632.000,0.500,1314.000,1.000,819.000,5.000,1.000
"07/01/06","23:02:56","AMMA06",60952.000,"cc",28317.231,6.00,2831.723,1,6,0.100,28316.000,0.200,26035.000,0.300,4564.000,0.500,1268.000,1.000,768.000,5.000,1.000
"07/01/06","23:03:02","AMMA06",61574.000,"cc",28307.145,6.00,2830.715,1,6,0.100,28685.000,0.200,26053.000,0.300,4757.000,0.500,1260.000,1.000,819.000,5.000,0
"07/01/06","23:03:08","AMMA06",61359.000,"cc",28337.879,6.00,2833.788,1,6,0.100,28666.000,0.200,26086.000,0.300,4522.000,0.500,1335.000,1.000,750.000,5.000,0
"07/01/06","23:03:14","AMMA06",61366.000,"cc",28321.875,6.00,2832.188,1,6,0.100,28287.000,0.200,26255.000,0.300,4680.000,0.500,1328.000,1.000,816.000,5.000,0
"07/01/06","23:03:20","AMMA06",61417.000,"cc",28312.732,6.00,2831.273,1,6,0.100,28482.000,0.200,26170.000,0.300,4780.000,0.500,1232.000,1.000,752.000,5.000,1.000
"07/01/06","23:03:26","AMMA06",61005.000,"cc",28303.672,6.00,2830.367,1,6,0.100,28451.000,0.200,25962.000,0.300,4493.000,0.500,1297.000,1.000,802.000,5.000,0
"07/01/06","23:03:32","AMMA06",61307.000,"cc",28282.363,6.00,2828.237,1,6,0.100,28573.000,0.200,26115.000,0.300,4566.000,0.500,1246.000,1.000,807.000,5.000,0
"07/01/06","23:03:38","AMMA06",61374.000,"cc",28268.897,6.00,2826.890,1,6,0.100,28588.000,0.200,26217.000,0.300,4545.000,0.500,1239.000,1.000,784.000,5.000,1.000
"07/01/06","23:03:44","AMMA06",61022.000,"cc",28343.734,6.00,2834.374,1,6,0.100,28501.000,0.200,25868.000,0.300,4597.000,0.500,1296.000,1.000,760.000,5.000,0
"07/01/06","23:03:50","AMMA06",62415.000,"cc",28337.670,6.00,2833.767,1,6,0.100,29382.000,0.200,26262.000,0.300,4741.000,0.500,1264.000,1.000,765.000,5.000,1.000
"07/01/06","23:03:56","AMMA06",62061.000,"cc",28277.402,6.00,2827.741,1,6,0.100,29048.000,0.200,26176.000,0.300,4730.000,0.500,1261.000,1.000,844.000,5.000,2.000
"07/01/06","23:04:02","AMMA06",61676.000,"cc",28344.795,6.00,2834.480,1,6,0.100,28813.000,0.200,26283.000,0.300,4546.000,0.500,1217.000,1.000,817.000,5.000,0
"07/01/06","23:04:08","AMMA06",61740.000,"cc",28350.385,6.00,2835.039,1,6,0.100,28802.000,0.200,26104.000,0.300,4792.000,0.500,1262.000,1.000,780.000,5.000,0
"07/01/06","23:04:14","AMMA06",61954.000,"cc",28328.838,6.00,2832.884,1,6,0.100,28837.000,0.200,26486.000,0.300,4641.000,0.500,1230.000,1.000,760.000,5.000,0
"07/01/06","23:04:20","AMMA06",62049.000,"cc",28309.082,6.00,2830.908,1,6,0.100,29086.000,0.200,26150.000,0.300,4756.000,0.500,1250.000,1.000,807.000,5.000,0
"07/01/06","23:04:26","AMMA06",61620.000,"cc",28329.975,6.00,2832.998,1,6,0.100,28651.000,0.200,26297.000,0.300,4569.000,0.500,1288.000,1.000,814.000,5.000,1.000
"07/01/06","23:04:32","AMMA06",61293.000,"cc",28323.744,6.00,2832.375,1,6,0.100,28336.000,0.200,26122.000,0.300,4745.000,0.500,1248.000,1.000,841.000,5.000,1.000
"07/01/06","23:04:38","AMMA06",61653.000,"cc",28341.178,6.00,2834.118,1,6,0.100,28731.000,0.200,26177.000,0.300,4714.000,0.500,1245.000,1.000,786.000,5.000,0
"07/01/06","23:04:44","AMMA06",61235.000,"cc",28334.996,6.00,2833.500,1,6,0.100,28179.000,0.200,26287.000,0.300,4677.000,0.500,1256.000,1.000,835.000,5.000,1.000
"07/01/06","23:04:50","AMMA06",60952.000,"cc",28275.203,6.00,2827.521,1,6,0.100,28194.000,0.200,25944.000,0.300,4743.000,0.500,1237.000,1.000,833.000,5.000,1.000
"07/01/06","23:04:56","AMMA06",61320.000,"cc",28325.356,6.00,2832.536,1,6,0.100,28235.000,0.200,26285.000,0.300,4707.000,0.500,1270.000,1.000,823.000,5.000,0
"07/01/06","23:05:02","AMMA06",61293.000,"cc",28316.387,6.00,2831.639,1,6,0.100,28263.000,0.200,26155.000,0.300,4827.000,0.500,1236.000,1.000,810.000,5.000,2.000
"07/01/06","23:05:08","AMMA06",60766.000,"cc",28326.395,6.00,2832.640,1,6,0.100,28062.000,0.200,26081.000,0.300,4609.000,0.500,1227.000,1.000,787.000,5.000,0
"07/01/06","23:05:14","AMMA06",61406.000,"cc",28273.106,6.00,2827.311,1,6,0.100,28146.000,0.200,26375.000,0.300,4830.000,0.500,1268.000,1.000,787.000,5.000,0
"07/01/06","23:05:20","AMMA06",60935.000,"cc",28325.135,6.00,2832.514,1,6,0.100,28053.000,0.200,26250.000,0.300,4659.000,0.500,1198.000,1.000,775.000,5.000,0
"07/01/06","23:05:26","AMMA06",60938.000,"cc",28335.936,6.00,2833.594,1,6,0.100,27916.000,0.200,26244.000,0.300,4784.000,0.500,1216.000,1.000,778.000,5.000,0
"07/01/06","23:05:32","AMMA06",61247.000,"cc",28349.820,6.00,2834.982,1,6,0.100,28270.000,0.200,26244.000,0.300,4686.000,0.500,1203.000,1.000,844.000,5.000,0
"07/01/06","23:05:38","AMMA06",60877.000,"cc",28327.750,6.00,2832.775,1,6,0.100,27972.000,0.200,25982.000,0.300,4825.000,0.500,1209.000,1.000,888.000,5.000,1.000
"07/01/06","23:05:44","AMMA06",60851.000,"cc",28295.938,6.00,2829.594,1,6,0.100,27896.000,0.200,26302.000,0.300,4669.000,0.500,1234.000,1.000,750.000,5.000,0
"07/01/06","23:05:50","AMMA06",60602.000,"cc",28305.279,6.00,2830.528,1,6,0.100,27742.000,0.200,26259.000,0.300,4629.000,0.500,1218.000,1.000,754.000,5.000,0
"07/01/06","23:05:56","AMMA06",60841.000,"cc",28326.133,6.00,2832.614,1,6,0.100,28026.000,0.200,26096.000,0.300,4740.000,0.500,1237.000,1.000,742.000,5.000,0
"07/01/06","23:06:02","AMMA06",61225.000,"cc",28299.373,6.00,2829.938,1,6,0.100,27838.000,0.200,26446.000,0.300,4838.000,0.500,1275.000,1.000,827.000,5.000,1.000
"07/01/06","23:06:08","AMMA06",61239.000,"cc",28309.500,6.00,2830.950,1,6,0.100,28030.000,0.200,26276.000,0.300,4801.000,0.500,1267.000,1.000,863.000,5.000,2.000
"07/01/06","23:06:14","AMMA06",61254.000,"cc",28336.119,6.00,2833.612,1,6,0.100,27968.000,0.200,26346.000,0.300,4818.000,0.500,1273.000,1.000,847.000,5.000,2.000
"07/01/06","23:06:20","AMMA06",61356.000,"cc",28317.283,6.00,2831.729,1,6,0.100,28024.000,0.200,26344.000,0.300,4812.000,0.500,1320.000,1.000,856.000,5.000,0
"07/01/06","23:06:26","AMMA06",61359.000,"cc",28265.975,6.00,2826.598,1,6,0.100,28069.000,0.200,26386.000,0.300,4819.000,0.500,1260.000,1.000,825.000,5.000,0
"07/01/06","23:06:32","AMMA06",61632.000,"cc",28327.994,6.00,2832.800,1,6,0.100,28390.000,0.200,26485.000,0.300,4694.000,0.500,1221.000,1.000,841.000,5.000,1.000
"07/01/06","23:06:38","AMMA06",61494.000,"cc",28348.023,6.00,2834.803,1,6,0.100,28036.000,0.200,26439.000,0.300,4905.000,0.500,1267.000,1.000,847.000,5.000,0
"07/01/06","23:06:44","AMMA06",61346.000,"cc",28304.227,6.00,2830.423,1,6,0.100,27975.000,0.200,26444.000,0.300,4813.000,0.500,1255.000,1.000,858.000,5.000,1.000
"07/01/06","23:06:50","AMMA06",61111.000,"cc",28308.158,6.00,2830.816,1,6,0.100,27632.000,0.200,26480.000,0.300,4848.000,0.500,1305.000,1.000,846.000,5.000,0
"07/01/06","23:06:56","AMMA06",61844.000,"cc",28400.883,6.00,2840.088,1,6,0.100,28107.000,0.200,26624.000,0.300,4993.000,0.500,1247.000,1.000,873.000,5.000,0
"07/01/06","23:07:02","AMMA06",60555.000,"cc",28341.998,6.00,2834.200,1,6,0.100,27310.000,0.200,26308.000,0.300,4943.000,0.500,1206.000,1.000,788.000,5.000,0
"07/01/06","23:07:08","AMMA06",61578.000,"cc",28264.121,6.00,2826.412,1,6,0.100,27827.000,0.200,26711.000,0.300,5005.000,0.500,1187.000,1.000,848.000,5.000,0
"07/01/06","23:07:14","AMMA06",61367.000,"cc",28322.135,6.00,2832.214,1,6,0.100,27542.000,0.200,26849.000,0.300,4872.000,0.500,1262.000,1.000,842.000,5.000,0
"07/01/06","23:07:20","AMMA06",61424.000,"cc",28335.400,6.00,2833.540,1,6,0.100,27864.000,0.200,26552.000,0.300,4932.000,0.500,1266.000,1.000,810.000,5.000,0
"07/01/06","23:07:26","AMMA06",61310.000,"cc",28296.025,6.00,2829.603,1,6,0.100,27629.000,0.200,26710.000,0.300,4957.000,0.500,1218.000,1.000,796.000,5.000,0
"07/01/06","23:07:32","AMMA06",61345.000,"cc",28308.795,6.00,2830.880,1,6,0.100,27573.000,0.200,26743.000,0.300,4991.000,0.500,1202.000,1.000,836.000,5.000,0
"07/01/06","23:07:38","AMMA06",61485.000,"cc",28287.338,6.00,2828.734,1,6,0.100,27667.000,0.200,26627.000,0.300,5049.000,0.500,1318.000,1.000,822.000,5.000,2.000
"07/01/06","23:07:44","AMMA06",61324.000,"cc",28350.486,6.00,2835.049,1,6,0.100,27503.000,0.200,26851.000,0.300,4876.000,0.500,1247.000,1.000,847.000,5.000,0
"07/01/06","23:07:50","AMMA06",60930.000,"cc",28349.658,6.00,2834.966,1,6,0.100,27340.000,0.200,26626.000,0.300,4939.000,0.500,1229.000,1.000,795.000,5.000,1.000
"07/01/06","23:07:56","AMMA06",61551.000,"cc",28323.902,6.00,2832.390,1,6,0.100,27719.000,0.200,26625.000,0.300,5091.000,0.500,1267.000,1.000,849.000,5.000,0
"07/01/06","23:08:02","AMMA06",61405.000,"cc",28339.316,6.00,2833.932,1,6,0.100,27441.000,0.200,26765.000,0.300,5089.000,0.500,1230.000,1.000,880.000,5.000,0
"07/01/06","23:08:08","AMMA06",61728.000,"cc",28261.717,6.00,2826.172,1,6,0.100,27657.000,0.200,27008.000,0.300,5021.000,0.500,1229.000,1.000,813.000,5.000,0
"07/01/06","23:08:14","AMMA06",61187.000,"cc",28334.506,6.00,2833.451,1,6,0.100,27739.000,0.200,26398.000,0.300,4985.000,0.500,1199.000,1.000,866.000,5.000,0
"07/01/06","23:08:20","AMMA06",60923.000,"cc",28291.824,6.00,2829.183,1,6,0.100,27187.000,0.200,26595.000,0.300,5016.000,0.500,1292.000,1.000,833.000,5.000,0
"07/01/06","23:08:26","AMMA06",60947.000,"cc",28300.033,6.00,2830.003,1,6,0.100,27175.000,0.200,26792.000,0.300,5024.000,0.500,1149.000,1.000,807.000,5.000,0
"07/01/06","23:08:32","AMMA06",61152.000,"cc",28326.551,6.00,2832.655,1,6,0.100,27309.000,0.200,26608.000,0.300,5047.000,0.500,1291.000,1.000,897.000,5.000,0
"07/01/06","23:08:38","AMMA06",61826.000,"cc",28272.998,6.00,2827.300,1,6,0.100,27706.000,0.200,26887.000,0.300,5115.000,0.500,1270.000,1.000,847.000,5.000,1.000
"07/01/06","23:08:44","AMMA06",61606.000,"cc",28331.420,6.00,2833.142,1,6,0.100,27619.000,0.200,26934.000,0.300,5035.000,0.500,1200.000,1.000,818.000,5.000,0
"07/01/06","23:08:50","AMMA06",61007.000,"cc",28376.654,6.00,2837.666,1,6,0.100,27228.000,0.200,26772.000,0.300,4944.000,0.500,1213.000,1.000,849.000,5.000,1.000
"07/01/06","23:08:56","AMMA06",61533.000,"cc",28266.043,6.00,2826.605,1,6,0.100,27451.000,0.200,26833.000,0.300,5154.000,0.500,1248.000,1.000,844.000,5.000,3.000
"07/01/06","23:09:02","AMMA06",62103.000,"cc",28340.936,6.00,2834.094,1,6,0.100,27765.000,0.200,27173.000,0.300,5021.000,0.500,1244.000,1.000,899.000,5.000,1.000
"07/01/06","23:09:08","AMMA06",61413.000,"cc",28337.354,6.00,2833.736,1,6,0.100,27517.000,0.200,26733.000,0.300,5015.000,0.500,1259.000,1.000,889.000,5.000,0
"07/01/06","23:09:14","AMMA06",61698.000,"cc",28256.443,6.00,2825.645,1,6,0.100,28131.000,0.200,26545.000,0.300,4938.000,0.500,1257.000,1.000,827.000,5.000,0
"07/01/06","23:09:20","AMMA06",61259.000,"cc",28353.930,6.00,2835.393,1,6,0.100,27734.000,0.200,26603.000,0.300,4806.000,0.500,1305.000,1.000,810.000,5.000,1.000
"07/01/06","23:09:26","AMMA06",61067.000,"cc",28280.322,6.00,2828.033,1,6,0.100,27708.000,0.200,26381.000,0.300,4948.000,0.500,1192.000,1.000,838.000,5.000,0
"07/01/06","23:09:32","AMMA06",61451.000,"cc",28290.348,6.00,2829.035,1,6,0.100,27786.000,0.200,26757.000,0.300,4872.000,0.500,1252.000,1.000,781.000,5.000,3.000
"07/01/06","23:09:38","AMMA06",61361.000,"cc",28333.656,6.00,2833.366,1,6,0.100,27705.000,0.200,26729.000,0.300,4875.000,0.500,1221.000,1.000,830.000,5.000,1.000
"07/01/06","23:09:44","AMMA06",61339.000,"cc",28328.219,6.00,2832.822,1,6,0.100,27797.000,0.200,26522.000,0.300,4944.000,0.500,1238.000,1.000,838.000,5.000,0
"07/01/06","23:09:50","AMMA06",61229.000,"cc",28380.729,6.00,2838.073,1,6,0.100,27978.000,0.200,26233.000,0.300,4946.000,0.500,1246.000,1.000,825.000,5.000,1.000
"07/01/06","23:09:56","AMMA06",60993.000,"cc",28317.977,6.00,2831.798,1,6,0.100,27663.000,0.200,26471.000,0.300,4781.000,0.500,1259.000,1.000,819.000,5.000,0
"07/01/06","23:10:02","AMMA06",60928.000,"cc",28289.666,6.00,2828.967,1,6,0.100,27967.000,0.200,26165.000,0.300,4739.000,0.500,1292.000,1.000,765.000,5.000,0
"07/01/06","23:10:08","AMMA06",61150.000,"cc",28352.061,6.00,2835.206,1,6,0.100,27815.000,0.200,26343.000,0.300,4935.000,0.500,1222.000,1.000,833.000,5.000,2.000
"07/01/06","23:10:14","AMMA06",61722.000,"cc",28277.168,6.00,2827.717,1,6,0.100,28248.000,0.200,26577.000,0.300,4808.000,0.500,1251.000,1.000,837.000,5.000,1.000
"07/01/06","23:10:20","AMMA06",61533.000,"cc",28294.701,6.00,2829.470,1,6,0.100,28224.000,0.200,26359.000,0.300,4904.000,0.500,1216.000,1.000,829.000,5.000,1.000
"07/01/06","23:10:26","AMMA06",61576.000,"cc",28351.660,6.00,2835.166,1,6,0.100,28152.000,0.200,26550.000,0.300,4814.000,0.500,1219.000,1.000,841.000,5.000,0
"07/01/06","23:10:32","AMMA06",60842.000,"cc",28348.725,6.00,2834.873,1,6,0.100,27640.000,0.200,26340.000,0.300,4802.000,0.500,1251.000,1.000,809.000,5.000,0
"07/01/06","23:10:38","AMMA06",61263.000,"cc",28321.338,6.00,2832.134,1,6,0.100,28104.000,0.200,26417.000,0.300,4652.000,0.500,1249.000,1.000,841.000,5.000,0
"07/01/06","23:10:44","AMMA06",61108.000,"cc",28290.248,6.00,2829.025,1,6,0.100,28134.000,0.200,26248.000,0.300,4688.000,0.500,1227.000,1.000,811.000,5.000,0
"07/01/06","23:10:50","AMMA06",61442.000,"cc",28277.361,6.00,2827.736,1,6,0.100,27948.000,0.200,26657.000,0.300,4788.000,0.500,1224.000,1.000,825.000,5.000,0
"07/01/06","23:10:56","AMMA06",61114.000,"cc",28312.426,6.00,2831.243,1,6,0.100,27935.000,0.200,26382.000,0.300,4812.000,0.500,1211.000,1.000,774.000,5.000,0
"07/01/06","23:11:02","AMMA06",60899.000,"cc",28345.356,6.00,2834.536,1,6,0.100,27927.000,0.200,26138.000,0.300,4712.000,0.500,1259.000,1.000,863.000,5.000,0
"07/01/06","23:11:08","AMMA06",61149.000,"cc",28338.262,6.00,2833.826,1,6,0.100,28065.000,0.200,26274.000,0.300,4761.000,0.500,1244.000,1.000,805.000,5.000,0
"07/01/06","23:11:14","AMMA06",61620.000,"cc",28321.549,6.00,2832.155,1,6,0.100,28518.000,0.200,26383.000,0.300,4692.000,0.500,1175.000,1.000,852.000,5.000,0
"07/01/06","23:11:20","AMMA06",61220.000,"cc",28282.807,6.00,2828.281,1,6,0.100,28246.000,0.200,26221.000,0.300,4664.000,0.500,1270.000,1.000,819.000,5.000,0
"07/01/06","23:11:26","AMMA06",61124.000,"cc",28273.643,6.00,2827.365,1,6,0.100,28179.000,0.200,26144.000,0.300,4661.000,0.500,1264.000,1.000,876.000,5.000,0
"07/01/06","23:11:32","AMMA06",61356.000,"cc",28328.563,6.00,2832.856,1,6,0.100,28393.000,0.200,26265.000,0.300,4692.000,0.500,1217.000,1.000,789.000,5.000,0
"07/01/06","23:11:38","AMMA06",61353.000,"cc",28358.131,6.00,2835.813,1,6,0.100,28390.000,0.200,26173.000,0.300,4689.000,0.500,1296.000,1.000,805.000,5.000,0
"07/01/06","23:11:44","AMMA06",61330.000,"cc",28303.541,6.00,2830.354,1,6,0.100,28231.000,0.200,26345.000,0.300,4672.000,0.500,1258.000,1.000,823.000,5.000,1.000
"07/01/06","23:11:50","AMMA06",61275.000,"cc",28316.180,6.00,2831.618,1,6,0.100,28227.000,0.200,26383.000,0.300,4608.000,0.500,1254.000,1.000,803.000,5.000,0
"07/01/06","23:11:56","AMMA06",61246.000,"cc",28332.822,6.00,2833.283,1,6,0.100,28294.000,0.200,26227.000,0.300,4686.000,0.500,1238.000,1.000,800.000,5.000,1.000
"07/01/06","23:12:02","AMMA06",61682.000,"cc",28333.047,6.00,2833.305,1,6,0.100,28529.000,0.200,26427.000,0.300,4612.000,0.500,1288.000,1.000,826.000,5.000,0
"07/01/06","23:12:08","AMMA06",61095.000,"cc",28380.027,6.00,2838.003,1,6,0.100,28190.000,0.200,26230.000,0.300,4565.000,0.500,1288.000,1.000,821.000,5.000,1.000
"07/01/06","23:12:14","AMMA06",61166.000,"cc",28273.758,6.00,2827.376,1,6,0.100,28330.000,0.200,26131.000,0.300,4660.000,0.500,1212.000,1.000,833.000,5.000,0
"07/01/06","23:12:20","AMMA06",61069.000,"cc",28370.434,6.00,2837.044,1,6,0.100,28214.000,0.200,26142.000,0.300,4638.000,0.500,1218.000,1.000,856.000,5.000,1.000
"07/01/06","23:12:26","AMMA06",61432.000,"cc",28312.344,6.00,2831.235,1,6,0.100,28371.000,0.200,26210.000,0.300,4710.000,0.500,1297.000,1.000,841.000,5.000,3.000
"07/01/06","23:12:32","AMMA06",61087.000,"cc",28308.549,6.00,2830.855,1,6,0.100,27990.000,0.200,26278.000,0.300,4714.000,0.500,1279.000,1.000,826.000,5.000,0
"07/01/06","23:12:38","AMMA06",60567.000,"cc",28314.832,6.00,2831.483,1,6,0.100,27937.000,0.200,25869.000,0.300,4746.000,0.500,1219.000,1.000,796.000,5.000,0
"07/01/06","23:12:44","AMMA06",60660.000,"cc",28296.648,6.00,2829.665,1,6,0.100,27780.000,0.200,26082.000,0.300,4695.000,0.500,1282.000,1.000,821.000,5.000,0
"07/01/06","23:12:50","AMMA06",61438.000,"cc",28268.363,6.00,2826.836,1,6,0.100,28300.000,0.200,26416.000,0.300,4717.000,0.500,1249.000,1.000,756.000,5.000,0
"07/01/06","23:12:56","AMMA06",61253.000,"cc",28353.070,6.00,2835.307,1,6,0.100,28158.000,0.200,26145.000,0.300,4807.000,0.500,1292.000,1.000,851.000,5.000,0
"07/01/06","23:13:02","AMMA06",61705.000,"cc",28284.643,6.00,2828.464,1,6,0.100,28173.000,0.200,26668.000,0.300,4810.000,0.500,1269.000,1.000,785.000,5.000,0
"07/01/06","23:13:08","AMMA06",61107.000,"cc",28381.938,6.00,2838.194,1,6,0.100,28019.000,0.200,26184.000,0.300,4817.000,0.500,1291.000,1.000,796.000,5.000,0
"07/01/06","23:13:14","AMMA06",60769.000,"cc",28327.389,6.00,2832.739,1,6,0.100,27943.000,0.200,26024.000,0.300,4736.000,0.500,1267.000,1.000,798.000,5.000,1.000
"07/01/06","23:13:20","AMMA06",61127.000,"cc",28278.346,6.00,2827.835,1,6,0.100,27896.000,0.200,26360.000,0.300,4700.000,0.500,1296.000,1.000,875.000,5.000,0
"07/01/06","23:13:26","AMMA06",61380.000,"cc",28327.389,6.00,2832.739,1,6,0.100,28123.000,0.200,26392.000,0.300,4801.000,0.500,1273.000,1.000,791.000,5.000,0
"07/01/06","23:13:32","AMMA06",61348.000,"cc",28317.432,6.00,2831.743,1,6,0.100,28107.000,0.200,26442.000,0.300,4688.000,0.500,1301.000,1.000,809.000,5.000,1.000
"07/01/06","23:13:38","AMMA06",61329.000,"cc",28279.291,6.00,2827.929,1,6,0.100,28150.000,0.200,26409.000,0.300,4722.000,0.500,1232.000,1.000,816.000,5.000,0
"07/01/06","23:13:44","AMMA06",61440.000,"cc",28292.076,6.00,2829.208,1,6,0.100,27986.000,0.200,26590.000,0.300,4874.000,0.500,1194.000,1.000,796.000,5.000,0
"07/01/06","23:13:50","AMMA06",61148.000,"cc",28360.020,6.00,2836.002,1,6,0.100,27724.000,0.200,26521.000,0.300,4789.000,0.500,1268.000,1.000,846.000,5.000,0
"07/01/06","23:13:56","AMMA06",61404.000,"cc",28346.938,6.00,2834.694,1,6,0.100,28180.000,0.200,26483.000,0.300,4700.000,0.500,1257.000,1.000,783.000,5.000,1.000
"07/01/06","23:14:02","AMMA06",61048.000,"cc",28277.193,6.00,2827.720,1,6,0.100,27707.000,0.200,26443.000,0.300,4746.000,0.500,1270.000,1.000,882.000,5.000,0